| time (UTC) | temp C | wind direction | speed KPH | gust KPH | rain 1hr cm | rain 24hr cm | rain mn cm | humidity % | barometer mb |
| 20260905010906 | 18 | 0.0 | 0.0 | 0.00 | 0.00 | 0.00 | 84 | 1020.6 | |
| 20260905005905 | 18 | 0.0 | 0.0 | 0.00 | 0.00 | 0.00 | 84 | 1020.6 | |
| 20260905004909 | 18 | 0.0 | 0.0 | 0.00 | 0.00 | 0.00 | 84 | 1020.4 | |
| 20260905002905 | 18 | 0.0 | 0.0 | 0.00 | 0.00 | 0.00 | 83 | 1020.5 | |
| 20260905001905 | 18 | 0.0 | 0.0 | 0.00 | 0.00 | 0.00 | 83 | 1020.6 | |
| 20260905000904 | 18 | 0.0 | 0.0 | 0.00 | 0.00 | 0.00 | 83 | 1020.6 | |
| 20260904235908 | 18 | 0.0 | 0.0 | 0.00 | 0.00 | 0.00 | 82 | 1020.3 | |
| 20260904233904 | 18 | 0.0 | 0.0 | 0.00 | 0.00 | 0.00 | 81 | 1019.7 | |
| 20260904232906 | 18 | 0.0 | 0.0 | 0.00 | 0.00 | 0.00 | 81 | 1019.9 | |
| 20260904231906 | 18 | 0.0 | 0.0 | 0.00 | 0.00 | 0.00 | 80 | 1019.8 | |
| 20260904230904 | 18 | 0.0 | 0.0 | 0.00 | 0.00 | 0.00 | 80 | 1020.0 | |
| 20260904225908 | 18 | 0.0 | 0.0 | 0.00 | 0.00 | 0.00 | 80 | 1019.9 | |
| 20260904223905 | 18 | 0.0 | 0.0 | 0.00 | 0.00 | 0.00 | 79 | 1020.1 | |
| 20260904222909 | 18 | 0.0 | 0.0 | 0.00 | 0.00 | 0.00 | 79 | 1020.1 | |
| 20260904220905 | 18 | 0.0 | 0.0 | 0.00 | 0.00 | 0.00 | 79 | 1019.8 | |
| 20260904215906 | 19 | 0.0 | 0.0 | 0.00 | 0.00 | 0.00 | 79 | 1019.6 | |
| 20260904214906 | 18 | 0.0 | 0.0 | 0.00 | 0.00 | 0.00 | 78 | 1019.6 | |
| 20260904213904 | 19 | 0.0 | 0.0 | 0.00 | 0.00 | 0.00 | 78 | 1019.5 | |
| 20260904212909 | 19 | 0.0 | 0.0 | 0.00 | 0.00 | 0.00 | 78 | 1019.6 | |
| 20260904210904 | 19 | 0.0 | 0.0 | 0.00 | 0.00 | 0.00 | 77 | 1019.6 | |
| 20260904205905 | 19 | 0.0 | 0.0 | 0.00 | 0.00 | 0.00 | 77 | 1019.7 | |
| 20260904204905 | 20 | 0.0 | 0.0 | 0.00 | 0.00 | 0.00 | 75 | 1019.7 | |
| 20260904203904 | 20 | 0.0 | 0.0 | 0.00 | 0.00 | 0.00 | 75 | 1019.8 | |
| 20260904202904 | 20 | 0.0 | 0.0 | 0.00 | 0.00 | 0.00 | 76 | 1019.8 | |
| 20260904201905 | 20 | 0.0 | 0.0 | 0.00 | 0.00 | 0.00 | 76 | 1019.3 | |
| 20260904200906 | 20 | 0.0 | 0.0 | 0.00 | 0.00 | 0.00 | 75 | 1019.0 | |
| 20260904195904 | 20 | 0.0 | 0.0 | 0.00 | 0.00 | 0.00 | 74 | 1018.7 | |
| 20260904194905 | 20 | 0.0 | 0.0 | 0.00 | 0.00 | 0.00 | 75 | 1018.3 | |
| 20260904193904 | 20 | 0.0 | 0.0 | 0.00 | 0.00 | 0.00 | 74 | 1018.6 | |
| 20260904192905 | 20 | 0.0 | 0.0 | 0.00 | 0.00 | 0.00 | 77 | 1018.4 | |
| 20260904191910 | 20 | 0.0 | 0.0 | 0.00 | 0.00 | 0.00 | 84 | 1018.2 | |
| 20260904185904 | 20 | 0.0 | 0.0 | 0.00 | 0.00 | 0.00 | 81 | 1017.3 | |
| 20260904184910 | 21 | 0.0 | 0.0 | 0.00 | 0.00 | 0.00 | 78 | 1016.8 | |
| 20260904180905 | 25 | 0.0 | 0.0 | 0.00 | 0.00 | 0.00 | 56 | 1014.6 | |
| 20260904175904 | 25 | 0.0 | 0.0 | 0.00 | 0.00 | 0.00 | 54 | 1014.4 | |
| 20260904174904 | 25 | 0.0 | 0.0 | 0.00 | 0.00 | 0.00 | 54 | 1014.1 | |
| 20260904173908 | 25 | 0.0 | 0.0 | 0.00 | 0.00 | 0.00 | 54 | 1014.2 | |
| 20260904171905 | 25 | 0.0 | 0.0 | 0.00 | 0.00 | 0.00 | 53 | 1014.1 | |
| 20260904170904 | 26 | 0.0 | 0.0 | 0.00 | 0.00 | 0.00 | 53 | 1014.0 | |
| 20260904165909 | 26 | 0.0 | 0.0 | 0.00 | 0.00 | 0.00 | 52 | 1013.9 | |
| 20260904163905 | 26 | 0.0 | 0.0 | 0.00 | 0.00 | 0.00 | 52 | 1013.9 | |
| 20260904162904 | 27 | 0.0 | 0.0 | 0.00 | 0.00 | 0.00 | 52 | 1013.9 | |
| 20260904161909 | 27 | 0.0 | 0.0 | 0.00 | 0.00 | 0.00 | 51 | 1013.9 | |
| 20260904155904 | 28 | 0.0 | 0.0 | 0.00 | 0.00 | 0.00 | 50 | 1013.9 | |
| 20260904154905 | 28 | 0.0 | 0.0 | 0.00 | 0.00 | 0.00 | 51 | 1013.9 | |
| 20260904153906 | 27 | 0.0 | 0.0 | 0.00 | 0.00 | 0.00 | 52 | 1014.0 | |
| 20260904152906 | 28 | 0.0 | 0.0 | 0.00 | 0.00 | 0.00 | 50 | 1014.0 | |
| 20260904151904 | 28 | 0.0 | 0.0 | 0.00 | 0.00 | 0.00 | 50 | 1013.9 | |
| 20260904150905 | 27 | 0.0 | 0.0 | 0.00 | 0.00 | 0.00 | 50 | 1014.2 | |
| 20260904145905 | 27 | 0.0 | 0.0 | 0.00 | 0.00 | 0.00 | 51 | 1014.1 | |
| 20260904144905 | 27 | 0.0 | 0.0 | 0.00 | 0.00 | 0.00 | 51 | 1014.2 | |
| 20260904143905 | 27 | 0.0 | 0.0 | 0.00 | 0.00 | 0.00 | 51 | 1014.1 | |
| 20260904142906 | 27 | 0.0 | 0.0 | 0.00 | 0.00 | 0.00 | 51 | 1013.9 | |
| 20260904141906 | 28 | 0.0 | 0.0 | 0.00 | 0.00 | 0.00 | 48 | 1013.9 | |
| 20260904140905 | 27 | 0.0 | 0.0 | 0.00 | 0.00 | 0.00 | 51 | 1013.9 | |
| 20260904135907 | 28 | 0.0 | 0.0 | 0.00 | 0.00 | 0.00 | 50 | 1013.9 | |
| 20260904134907 | 29 | 0.0 | 0.0 | 0.00 | 0.00 | 0.00 | 48 | 1013.8 | |
| 20260904133905 | 27 | 0.0 | 0.0 | 0.00 | 0.00 | 0.00 | 52 | 1014.0 | |
| 20260904132909 | 28 | 0.0 | 0.0 | 0.00 | 0.00 | 0.00 | 51 | 1013.9 | |
| 20260904130904 | 27 | 0.0 | 0.0 | 0.00 | 0.00 | 0.00 | 55 | 1014.3 | |
| 20260904125905 | 27 | 0.0 | 0.0 | 0.00 | 0.00 | 0.00 | 54 | 1014.3 | |
| 20260904124906 | 27 | 0.0 | 0.0 | 0.00 | 0.00 | 0.00 | 56 | 1014.6 | |
| 20260904123906 | 27 | 0.0 | 0.0 | 0.00 | 0.00 | 0.00 | 55 | 1014.7 | |
| 20260904122905 | 26 | 0.0 | 0.0 | 0.00 | 0.00 | 0.00 | 55 | 1014.7 | |
| 20260904121906 | 26 | 0.0 | 0.0 | 0.00 | 0.00 | 0.00 | 58 | 1014.7 | |
| 20260904120906 | 26 | 0.0 | 0.0 | 0.00 | 0.00 | 0.00 | 57 | 1015.0 | |
| 20260904115910 | 27 | 0.0 | 0.0 | 0.00 | 0.00 | 0.00 | 56 | 1015.4 | |
| 20260904113906 | 26 | 0.0 | 0.0 | 0.00 | 0.00 | 0.00 | 60 | 1015.4 | |
| 20260904112906 | 25 | 0.0 | 0.0 | 0.00 | 0.00 | 0.00 | 63 | 1015.5 | |
| 20260904111904 | 25 | 0.0 | 0.0 | 0.00 | 0.00 | 0.00 | 66 | 1015.8 | |
| 20260904110909 | 24 | 0.0 | 0.0 | 0.00 | 0.00 | 0.00 | 67 | 1016.0 | |
| 20260904104904 | 24 | 0.0 | 0.0 | 0.00 | 0.00 | 0.00 | 69 | 1016.3 | |
| 20260904103905 | 23 | 0.0 | 0.0 | 0.00 | 0.00 | 0.00 | 70 | 1016.3 | |
| 20260904102906 | 23 | 0.0 | 0.0 | 0.00 | 0.00 | 0.00 | 73 | 1016.4 | |
| 20260904101907 | 23 | 0.0 | 0.0 | 0.00 | 0.00 | 0.00 | 74 | 1016.6 | |
| 20260904100905 | 23 | 0.0 | 0.0 | 0.00 | 0.00 | 0.00 | 76 | 1016.7 | |
| 20260904095906 | 22 | 0.0 | 0.0 | 0.00 | 0.00 | 0.00 | 78 | 1016.8 | |
| 20260904094906 | 23 | 0.0 | 0.0 | 0.00 | 0.00 | 0.00 | 79 | 1016.9 | |
| 20260904093904 | 22 | 0.0 | 0.0 | 0.00 | 0.00 | 0.00 | 81 | 1016.9 | |
| 20260904092904 | 23 | 0.0 | 0.0 | 0.00 | 0.00 | 0.00 | 80 | 1016.8 | |
| 20260904091903 | 22 | 0.0 | 0.0 | 0.00 | 0.00 | 0.00 | 82 | 1017.0 | |
| 20260904090904 | 22 | 0.0 | 0.0 | 0.00 | 0.00 | 0.00 | 83 | 1017.1 | |
| 20260904085905 | 22 | 0.0 | 0.0 | 0.00 | 0.00 | 0.00 | 85 | 1017.1 | |
| 20260904084906 | 22 | 0.0 | 0.0 | 0.00 | 0.00 | 0.00 | 85 | 1017.2 | |
| 20260904083905 | 21 | 0.0 | 0.0 | 0.00 | 0.00 | 0.00 | 87 | 1017.5 | |
| 20260904082909 | 21 | 0.0 | 0.0 | 0.00 | 0.00 | 0.00 | 88 | 1017.6 | |
| 20260904080909 | 21 | 0.0 | 0.0 | 0.00 | 0.00 | 0.00 | 91 | 1017.9 | |
| 20260904074905 | 21 | 0.0 | 0.0 | 0.00 | 0.00 | 0.00 | 93 | 1018.1 | |
| 20260904073907 | 20 | 0.0 | 0.0 | 0.00 | 0.00 | 0.00 | 94 | 1018.0 | |
| 20260904072905 | 20 | 0.0 | 0.0 | 0.00 | 0.00 | 0.00 | 96 | 1017.8 | |
| 20260904071904 | 20 | 0.0 | 0.0 | 0.00 | 0.00 | 0.00 | 96 | 1018.5 | |
| 20260904070905 | 20 | 0.0 | 0.0 | 0.00 | 0.00 | 0.00 | 96 | 1018.1 | |
| 20260904065904 | 20 | 0.0 | 0.0 | 0.00 | 0.00 | 0.00 | 97 | 1018.5 | |
| 20260904064903 | 20 | 0.0 | 0.0 | 0.00 | 0.00 | 0.00 | 97 | 1018.7 | |
| 20260904063904 | 19 | 0.0 | 0.0 | 0.00 | 0.00 | 0.00 | 98 | 1018.9 | |
| 20260904062905 | 19 | 0.0 | 0.0 | 0.00 | 0.00 | 0.00 | 98 | 1019.0 | |
| 20260904061905 | 19 | 0.0 | 0.0 | 0.00 | 0.00 | 0.00 | 99 | 1019.1 | |
| 20260904060905 | 19 | 0.0 | 0.0 | 0.00 | 0.00 | 0.00 | 99 | 1019.3 | |
| 20260904055909 | 18 | 0.0 | 0.0 | 0.00 | 0.00 | 0.00 | 10 | 1019.4 | |
| 20260904053910 | 18 | 0.0 | 0.0 | 0.00 | 0.00 | 0.00 | 99 | 1019.4 | |
| 20260904050904 | 18 | 0.0 | 0.0 | 0.00 | 0.00 | 0.00 | 99 | 1019.4 | |
| 20260904045904 | 18 | 0.0 | 0.0 | 0.00 | 0.00 | 0.00 | 10 | 1019.3 | |
| 20260904044909 | 18 | 0.0 | 0.0 | 0.00 | 0.00 | 0.00 | 98 | 1019.5 | |
| 20260904042907 | 18 | 0.0 | 0.0 | 0.00 | 0.00 | 0.00 | 98 | 1019.7 | |
| 20260904041907 | 18 | 0.0 | 0.0 | 0.00 | 0.00 | 0.00 | 98 | 1019.7 | |
| 20260904040904 | 18 | 0.0 | 0.0 | 0.00 | 0.00 | 0.00 | 98 | 1019.7 | |
| 20260904035904 | 18 | 0.0 | 0.0 | 0.00 | 0.00 | 0.00 | 97 | 1019.6 | |
| 20260904034905 | 18 | 0.0 | 0.0 | 0.00 | 0.00 | 0.00 | 97 | 1019.8 | |
| 20260904033905 | 18 | 0.0 | 0.0 | 0.00 | 0.00 | 0.00 | 98 | 1019.8 | |
| 20260904032905 | 18 | 0.0 | 0.0 | 0.00 | 0.00 | 0.00 | 98 | 1019.9 | |
| 20260904031904 | 18 | 0.0 | 0.0 | 0.00 | 0.00 | 0.00 | 98 | 1019.9 | |
| 20260904030904 | 18 | 0.0 | 0.0 | 0.00 | 0.00 | 0.00 | 99 | 1020.0 | |
| 20260904025904 | 18 | 0.0 | 0.0 | 0.00 | 0.00 | 0.00 | 99 | 1020.1 | |
| 20260904024905 | 18 | 0.0 | 0.0 | 0.00 | 0.00 | 0.00 | 99 | 1020.3 | |
| 20260904023904 | 18 | 0.0 | 0.0 | 0.00 | 0.00 | 0.00 | 95 | 1020.4 | |
| 20260904022905 | 18 | 0.0 | 0.0 | 0.00 | 0.00 | 0.00 | 97 | 1020.4 | |
| 20260904021905 | 18 | 0.0 | 0.0 | 0.00 | 0.00 | 0.00 | 95 | 1020.5 | |
| 20260904020909 | 18 | 0.0 | 0.0 | 0.00 | 0.00 | 0.00 | 95 | 1020.6 | |
| 20260904013903 | 18 | 0.0 | 0.0 | 0.00 | 0.00 | 0.00 | 94 | 1020.7 | |
| 20260904012903 | 18 | 0.0 | 0.0 | 0.00 | 0.00 | 0.00 | 94 | 1020.7 |